Location: Brede
(50.9167°N, 0.6000°E)
Time: 16:16:22
(UTC+00:00)

Vanguard 1 Rocket - Visible Passes

Search period start: 26 November 2020 00:00
Search period end: 06 December 2020 00:00
Orbit: 656 x 4221 km, 34.3° (Epoch: 25 November)

Date Brightness Start Highest point End Pass type
(mag) Time Alt. Az. Time Alt. Az. Time Alt. Az.
26 Nov 10.7 02:01:32 37° SSE 02:01:32 37° SSE 02:15:42 10° E visible
26 Nov 10.3 04:18:50 27° SW 04:29:01 43° S 04:40:40 10° ESE visible
26 Nov 10.3 06:41:23 10° W 06:54:47 29° SSW 07:02:57 10° SSE visible
27 Nov 11.0 00:54:21 28° SE 00:54:21 28° SE 01:03:35 10° E visible
27 Nov 10.4 03:11:38 40° SSW 03:16:20 44° S 03:29:58 10° ESE visible
27 Nov 10.2 05:28:55 15° WSW 05:43:26 38° SSW 05:53:33 10° SE visible
27 Nov 11.4 23:47:06 15° ESE 23:47:06 15° ESE 23:50:16 10° E visible
28 Nov 10.6 02:04:23 41° SSE 02:04:23 41° SSE 02:18:43 10° ESE visible
28 Nov 10.3 04:21:40 29° SW 04:31:22 44° S 04:43:29 10° ESE visible
28 Nov 10.4 06:43:45 10° W 06:56:57 27° SW 07:05:17 10° SSE visible
29 Nov 11.0 00:57:07 31° SE 00:57:07 31° SE 01:06:44 10° E visible
29 Nov 10.4 03:14:23 43° SSW 03:18:37 46° S 03:32:51 10° ESE visible
29 Nov 10.3 05:31:40 16° WSW 05:45:41 36° SSW 05:56:08 10° SE visible
29 Nov 11.4 23:49:49 17° ESE 23:49:49 17° ESE 23:53:46 10° E visible
30 Nov 10.5 02:07:06 44° SSE 02:07:06 44° SSE 02:21:37 10° ESE visible
30 Nov 10.3 04:24:22 31° WSW 04:33:38 43° SSW 04:46:11 10° SE visible
30 Nov 10.5 06:46:15 10° W 06:59:00 24° SW 07:07:22 10° S visible
01 Dec 10.9 00:59:47 33° SE 00:59:47 33° SE 01:09:42 10° E visible
01 Dec 10.4 03:17:04 44° SSW 03:20:50 47° S 03:35:37 10° ESE visible
01 Dec 10.4 05:34:20 16° W 05:47:48 34° SSW 05:58:34 10° SSE visible
01 Dec 11.4 23:52:27 19° ESE 23:52:27 19° ESE 23:56:54 10° E visible
02 Dec 10.5 02:09:44 46° SSE 02:09:44 46° SSE 02:24:24 10° ESE visible
02 Dec 10.4 04:27:00 31° WSW 04:35:48 42° SSW 04:48:47 10° SE visible
02 Dec 10.7 06:48:59 10° W 07:00:53 21° SW 07:09:07 10° S visible
02 Dec11.822:45:08E22:45:08E22:02:22SSWvisible
03 Dec 10.9 01:02:24 35° SE 01:02:24 35° SE 01:12:31 10° E visible
03 Dec 10.4 03:19:40 45° SSW 03:22:59 48° S 03:38:17 10° ESE visible
03 Dec 10.5 05:36:56 17° W 05:49:47 31° SW 06:00:47 10° SSE visible
03 Dec 11.3 23:55:04 20° ESE 23:55:04 20° ESE 23:59:49 10° E visible
04 Dec 10.5 02:12:20 48° SSE 02:12:20 48° SSE 02:27:07 10° ESE visible
04 Dec 10.5 04:29:37 31° WSW 04:37:50 40° SSW 04:51:15 10° SE visible
04 Dec 10.9 06:52:05 10° W 07:02:37 18° SW 07:10:24 10° SSW visible
04 Dec11.722:47:44E22:47:44E22:05:11SSWvisible
05 Dec 10.9 01:05:00 35° SE 01:05:00 35° SE 01:15:14 10° ESE visible
05 Dec 10.4 03:22:16 45° SSW 03:25:03 47° SSW 03:40:51 10° SE visible
05 Dec 10.7 05:39:33 16° W 05:51:36 28° SW 06:02:45 10° S visible
